COSMOS 1823 DEB, 39822

Orbit data source: Space-Track

COSMOS 1823 DEB, 39822 is space debris in LEO originally from a launch on Fri, 20 Feb 1987 UTC launched from the Plesetsk Missile And Space Complex (PKMTR). Debris objects in space refer to the collection of defunct objects orbiting the Earth. Examples of debris include non-operational satellites, rocket bodies, and fragments generated from explosions, collisions, or faulty payload assembly.

Loading next visibility...
Identifier
39822, 1987-020EW
Orbit
LEO
Country
Flag of CISCIS
Related business
Manufacturer
Unknown
Mission
Spacecraft
Bus & Motor
Unknown
Mass
Unknown
Launch date (UTC)
1987-02-20 (39 years ago)
Launch vehicle
Unknown
Launch site
Plesetsk Missile And Space Complex (PKMTR)
Object type
Payload
Rocket body
Debris
Shape & HBR
Unknown shape, 0.1 m
Radar Cross Section
Medium (>0.1 m² and <1 m²)

Expand to show TLE details & history
Last TLE update: 4 days ago

TLE from 4 days ago
0 COSMOS 1823 DEB
1 39822U 87020EW  26169.81228954  .00000218  00000-0  19185-2 0  9991
2 39822  73.9716 213.1528 0128099 158.6531 201.9921 12.30456901981293
Epoch: 2026-06-18T19:29Z
TLE epoch observation values (Epoch: 2026-06-18T19:29:41.816Z)
Latitude
0.00005°
Longitude
13.67833°
Altitude
1,644.001 km
Speed
7.008 km/s
True Right ascension
14h 12m 36s
True Declination
0° 00' 00"
Sunlit
Object was in daylight at epoch
Visualization orbit readout
Latitude
Unknown
Longitude
Unknown
Altitude
Unknown
Speed
Unknown
Apparent Right ascension
Unknown
Apparent Declination
Unknown
Sunlit
N/A
Visualization observer readout
Local Sidereal Time
00:39:44
Azimuth
Unknown
Elevation
Unknown
Doppler factor
Unknown
Orbital elements
Apogee altitude
1,646.677 km
Perigee altitude
1,443.683 km
Semi-major axis
7,923.317 km
Eccentricity
0.01281
Inclination
73.9716°
RAAN
213.1528°
Arg. of periapsis
158.6531°
True anomaly
201.45046°
Mean anomaly
201.9921°
Eccentric anomaly
201.72048°
Mean motion
3.07739 °/min
Orbital period
116.98 mins
BSTAR
0.0019185
Loading maneuver chart data...
Computing Atmospheric mass density...

Documentation

Showing up to 5 results
|